Content
SEND FEEDBACK

Daily
Averages
Monthly
Summary
United States of America

DENTON, MARYLAND


Home > North America > United States > Maryland
Elevation: 49 feet     Latitude: 38 52N     Longitude: 075 48W

WEATHER
 
SELECT A DAY
Number of Records: 151,025;   Date Range: 2/29/96 - 9/30/14
 
SHARE

PRINT THIS DATA

[ ← Previous Day ]
WEATHER ALMANAC - JANUARY 31, 2013
[ Next Day → ]
[ °C ]   °F
Weather ElementAverageHighLow
Temperature47.3 °F62.4 °F (2:16 am)30.6 °F (10:34 pm)
Dewpoint37.3 °F61.3 °F (1:12 am)16.5 °F (11:17 pm)
Humidity70.6 %100 % (12:30 am)43 % (11:52 am)
Barometer29.56 in29.96 in (10:55 pm)29.20 in (1:55 am)
Wind Speed16.9 mph33.4 mph (1:34 am)
Wind Gust43.7 mph (12:51 am)
Weather ElementAverage
Visibility9.6 mi
Wind DirectionW (272.6 °)

Weather ElementTotal
Precipitation0.49 in
Heating Degree Days18.5 (Base 65)
Averaged from 42 records on January 31, 2013
WEATHER CONDITIONS BREAKOUT
WIND DIRECTION BREAKOUT
WEATHER BY HOUR - JANUARY 31, 2013
[ °C ]   °F
Local TimeTemperatureDewpointHumidityBarometerVisibilityWind DirectionWind SpeedGust SpeedPrecipitationEventsConditions
12:30 AM60.8 °F60.8 °F100 %29.33 in7.0 miSouth (190°)26.5 mph40.3 mph0.01 inRainLight Rain
12:51 AM61.2 °F61.2 °F100 %29.29 in10.0 miSouth (190°)31.1 mph43.7 mph0.01 inLight Drizzle
1:12 AM61.3 °F61.3 °F100 %29.26 in10.0 miSouth (190°)28.8 mph41.4 mphScattered Clouds
1:34 AM62.1 °F61.3 °F97 %29.23 in10.0 miSouth (190°)33.4 mph41.4 mphScattered Clouds
1:55 AM62.2 °F60.3 °F93 %29.20 in10.0 miSouth (190°)24.2 mph41.4 mphScattered Clouds
2:16 AM62.4 °F60.6 °F94 %29.20 in10.0 miSSW (200°)25.3 mph40.3 mphScattered Clouds
2:38 AM56.7 °F56.7 °F100 %29.30 in3.0 miWSW (240°)24.2 mph33.4 mph0.28 inRainHeavy Rain
3:05 AM57.6 °F57.6 °F100 %29.29 in7.0 miWest (270°)10.4 mph20.7 mph0.02 inRainRain
3:26 AM56.7 °F56.7 °F100 %29.28 in7.0 miWest (260°)13.8 mph19.6 mph0.07 inRainRain
3:47 AM56.3 °F56.3 °F100 %29.26 in10.0 miWSW (240°)15.0 mph26.5 mph0.08 inRainLight Rain
4:09 AM55.6 °F55.6 °F100 %29.25 in10.0 miSW (220°)16.1 mphRainLight Rain
4:30 AM55.4 °F55.4 °F100 %29.25 in10.0 miWSW (240°)16.1 mph23.0 mph0.01 inLight Drizzle
4:51 AM55.4 °F55.4 °F100 %29.27 in10.0 miWSW (240°)16.1 mph25.3 mph0.01 inClear
5:12 AM55.9 °F51.8 °F86 %29.29 in10.0 miWSW (250°)15.0 mph27.6 mphScattered Clouds
5:34 AM55.2 °F50.2 °F83 %29.33 in10.0 miWNW (300°)17.3 mph24.2 mphMostly Cloudy
5:53 AM51.8 °F46.4 °F82 %29.36 in10.0 miWNW (300°)17.3 mph25.3 mphOvercast
5:55 AM52.5 °F46.0 °F79 %29.36 in10.0 miNW (310°)16.1 mph25.3 mphOvercast
6:16 AM49.6 °F39.4 °F68 %29.40 in10.0 miNW (310°)19.6 mph35.7 mphOvercast
6:38 AM48.4 °F36.9 °F64 %29.42 in10.0 miNW (310°)23.0 mph29.9 mphMostly Cloudy
6:40 AM48.2 °F36.3 °F63 %29.43 in10.0 miNW (320°)21.9 mph29.9 mphMostly Cloudy
6:53 AM46.4 °F35.6 °F66 %29.44 in10.0 miNW (310°)19.6 mph29.9 mphMostly Cloudy
7:53 AM44.6 °F32.0 °F61 %29.51 in10.0 miNW (310°)20.7 mph34.5 mphScattered Clouds
8:53 AM44.6 °F30.2 °F57 %29.58 in10.0 miNW (310°)25.3 mph34.5 mphPartly Cloudy
9:53 AM44.6 °F28.4 °F53 %29.63 in10.0 miNW (310°)20.7 mph32.2 mphPartly Cloudy
10:53 AM46.4 °F26.6 °F46 %29.66 in10.0 miWNW (290°)15.0 mph28.8 mphPartly Cloudy
11:52 AM46.4 °F24.8 °F43 %29.67 in10.0 miWNW (290°)20.7 mph38.0 mphScattered Clouds
12:50 PM48.2 °F26.6 °F43 %29.68 in10.0 miWest (280°)15.0 mph28.8 mphScattered Clouds
1:54 PM48.2 °F26.6 °F43 %29.68 in10.0 miWNW (300°)12.7 mph23.0 mphMostly Cloudy
2:50 PM46.4 °F24.8 °F43 %29.71 in10.0 miNW (310°)19.6 mph29.9 mphScattered Clouds
3:48 PM42.8 °F23.0 °F46 %29.75 in10.0 miNW (310°)16.1 mph24.2 mphMostly Cloudy
4:52 PM39.2 °F24.8 °F56 %29.85 in10.0 miNW (310°)16.1 mph28.8 mphMostly Cloudy
5:45 PM37.4 °F19.4 °F48 %29.83 in10.0 miWNW (300°)17.3 mph28.8 mphMostly Cloudy
6:50 PM37.4 °F19.4 °F48 %29.87 in10.0 miWNW (300°)11.5 mph17.3 mphClear
7:49 PM35.6 °F21.2 °F56 %29.91 in10.0 miWNW (300°)11.5 mph16.1 mphClear
8:59 PM32.0 °F19.4 °F60 %29.94 in10.0 miNW (320°)12.7 mph23.0 mphClear
9:51 PM32.0 °F17.6 °F55 %29.94 in10.0 miNNW (340°)10.4 mphClear
10:13 PM31.6 °F16.9 °F54 %29.95 in10.0 miNNW (330°)9.2 mphClear
10:34 PM30.6 °F17.2 °F58 %29.95 in10.0 miNNW (340°)4.6 mphClear
10:55 PM31.1 °F17.1 °F56 %29.96 in10.0 miNW (320°)6.9 mphClear
11:17 PM31.5 °F16.5 °F54 %29.96 in10.0 miNW (310°)5.8 mphClear
11:38 PM31.1 °F16.7 °F55 %29.96 in10.0 miCalmScattered Clouds
11:59 PM31.1 °F16.9 °F56 %29.96 in10.0 miWNW (300°)5.8 mphScattered Clouds
Hourly data recorded from KESN, located miles away from Denton, Maryland







STORIES FROM OUR PARTNERS